• In Portugal
  • List of Countries
  • For 7 days
  • Water Temperature
  • Satellite Maps
  • Weather Map
  • Weather Widgets
  • user-avatar
    Login

    Hourly Weather Hrazdan

    Today, 26 September, Tuesday

    Time Temperature Precipitation Wind Pressure Humidity
    00:00 +11°C° 0 mm 1 mps 616 mmHg 83%
    01:00 +11°C° 0 mm 1 mps 615 mmHg 84%
    02:00 +11°C° 0 mm 1 mps 615 mmHg 85%
    03:00 +10°C° 0 mm 1 mps 615 mmHg 85%
    04:00 +10°C° 0 mm 1 mps 615 mmHg 85%
    05:00 +10°C° 0 mm 1 mps 615 mmHg 85%
    06:00 +10°C° 0 mm 1 mps 615 mmHg 85%
    07:00 +12°C° 0 mm 1 mps 615 mmHg 76%
    08:00 +13°C° 0 mm 1 mps 616 mmHg 66%
    09:00 +16°C° 0 mm 1 mps 617 mmHg 54%
    10:00 +17°C° 0 mm 2 mps 617 mmHg 48%
    11:00 +18°C° 0 mm 2 mps 617 mmHg 43%
    12:00 +19°C° 0 mm 2 mps 617 mmHg 38%
    13:00 +20°C° 0 mm 2 mps 617 mmHg 37%
    14:00 +20°C° 0 mm 2 mps 617 mmHg 36%
    15:00 +20°C° 0 mm 2 mps 617 mmHg 35%
    16:00 +18°C° 0.1 mm 2 mps 616 mmHg 43%
    17:00 +16°C° 0.1 mm 2 mps 615 mmHg 51%
    18:00 +15°C° 0.1 mm 1 mps 615 mmHg 59%
    19:00 +14°C° 0.1 mm 1 mps 615 mmHg 64%
    20:00 +14°C° 0.1 mm 2 mps 615 mmHg 70%
    21:00 +13°C° 0.1 mm 2 mps 615 mmHg 76%
    22:00 +13°C° 0.2 mm 2 mps 615 mmHg 77%
    23:00 +13°C° 0.2 mm 2 mps 615 mmHg 79%

    Tomorrow, 27 September, Wednesday

    Time Temperature Precipitation Wind Pressure Humidity
    00:00 +13°C° 0.2 mm 2 mps 615 mmHg 81%
    01:00 +12°C° 0.1 mm 1 mps 615 mmHg 82%
    02:00 +12°C° 0.1 mm 1 mps 615 mmHg 84%
    03:00 +11°C° 0.1 mm 1 mps 614 mmHg 85%
    04:00 +11°C° 0.1 mm 1 mps 614 mmHg 85%
    05:00 +11°C° 0.1 mm 1 mps 614 mmHg 85%
    06:00 +11°C° 0.1 mm 1 mps 614 mmHg 85%
    07:00 +12°C° 0.1 mm 1 mps 614 mmHg 77%
    08:00 +13°C° 0.1 mm 1 mps 615 mmHg 69%
    09:00 +15°C° 0.1 mm 1 mps 615 mmHg 61%
    10:00 +16°C° 0.1 mm 2 mps 615 mmHg 57%
    11:00 +17°C° 0.1 mm 2 mps 616 mmHg 53%
    12:00 +18°C° 0.1 mm 3 mps 616 mmHg 48%
    13:00 +18°C° 0.2 mm 3 mps 615 mmHg 49%
    14:00 +18°C° 0.2 mm 3 mps 615 mmHg 49%
    15:00 +18°C° 0.2 mm 3 mps 615 mmHg 50%
    16:00 +16°C° 0.5 mm 3 mps 614 mmHg 58%
    17:00 +14°C° 0.5 mm 3 mps 614 mmHg 66%
    18:00 +13°C° 0.5 mm 2 mps 613 mmHg 75%
    19:00 +12°C° 0.2 mm 3 mps 613 mmHg 78%
    20:00 +11°C° 0.2 mm 3 mps 613 mmHg 81%
    21:00 +11°C° 0.2 mm 3 mps 614 mmHg 83%
    22:00 +10°C° 0.1 mm 2 mps 613 mmHg 85%
    23:00 +10°C° 0.1 mm 2 mps 613 mmHg 86%

    Day after tomorrow, 28 September, Thursday

    Time Temperature Precipitation Wind Pressure Humidity
    00:00 +10°C° 0.1 mm 2 mps 613 mmHg 87%
    01:00 +9°C° 0.1 mm 2 mps 613 mmHg 87%
    02:00 +9°C° 0.1 mm 2 mps 613 mmHg 88%
    03:00 +10°C° 0.1 mm 1 mps 613 mmHg 88%
    04:00 +9°C° 0.1 mm 1 mps 613 mmHg 89%
    05:00 +9°C° 0.1 mm 1 mps 613 mmHg 89%
    06:00 +9°C° 0.1 mm 1 mps 613 mmHg 89%
    07:00 +10°C° 0.1 mm 1 mps 614 mmHg 84%
    08:00 +11°C° 0.1 mm 1 mps 614 mmHg 78%
    09:00 +12°C° 0.1 mm 1 mps 615 mmHg 73%
    10:00 +13°C° 0.2 mm 2 mps 615 mmHg 69%
    11:00 +14°C° 0.2 mm 2 mps 615 mmHg 66%
    12:00 +14°C° 0.2 mm 2 mps 615 mmHg 63%
    13:00 +14°C° 0.3 mm 2 mps 615 mmHg 64%
    14:00 +14°C° 0.3 mm 2 mps 615 mmHg 65%
    15:00 +14°C° 0.3 mm 2 mps 615 mmHg 66%
    16:00 +13°C° 0.3 mm 2 mps 615 mmHg 71%
    17:00 +10°C° 0.3 mm 3 mps 614 mmHg 77%
    18:00 +9°C° 0.3 mm 3 mps 614 mmHg 82%
    19:00 +9°C° 0.2 mm 3 mps 614 mmHg 83%
    20:00 +8°C° 0.2 mm 3 mps 615 mmHg 84%
    21:00 +8°C° 0.2 mm 3 mps 615 mmHg 85%
    22:00 +8°C° 0.3 mm 3 mps 615 mmHg 86%
    23:00 +8°C° 0.3 mm 2 mps 615 mmHg 86%

    29 September, Friday

    Time Temperature Precipitation Wind Pressure Humidity
    00:00 +7°C° 0.3 mm 2 mps 615 mmHg 86%
    01:00 +7°C° 0.1 mm 2 mps 615 mmHg 87%
    02:00 +7°C° 0.1 mm 2 mps 615 mmHg 87%
    03:00 +7°C° 0.1 mm 2 mps 615 mmHg 87%
    04:00 +7°C° 0.1 mm 2 mps 615 mmHg 88%
    05:00 +6°C° 0.1 mm 2 mps 615 mmHg 88%
    06:00 +6°C° 0.1 mm 2 mps 615 mmHg 89%
    07:00 +7°C° 0 mm 2 mps 615 mmHg 83%
    08:00 +8°C° 0 mm 2 mps 616 mmHg 78%
    09:00 +9°C° 0 mm 2 mps 616 mmHg 73%
    10:00 +10°C° 0 mm 2 mps 616 mmHg 70%
    11:00 +12°C° 0 mm 2 mps 616 mmHg 67%
    12:00 +13°C° 0 mm 2 mps 616 mmHg 64%
    13:00 +12°C° 0 mm 2 mps 616 mmHg 65%
    14:00 +12°C° 0 mm 2 mps 616 mmHg 66%
    15:00 +11°C° 0 mm 3 mps 615 mmHg 67%
    16:00 +10°C° 0.1 mm 3 mps 615 mmHg 71%
    17:00 +9°C° 0.1 mm 3 mps 615 mmHg 76%
    18:00 +8°C° 0.1 mm 3 mps 615 mmHg 80%
    19:00 +8°C° 0.2 mm 3 mps 615 mmHg 82%
    20:00 +8°C° 0.2 mm 3 mps 615 mmHg 83%
    21:00 +7°C° 0.2 mm 2 mps 615 mmHg 84%
    22:00 +7°C° 0.2 mm 2 mps 615 mmHg 85%
    23:00 +7°C° 0.2 mm 2 mps 614 mmHg 86%

    30 September, Saturday

    Time Temperature Precipitation Wind Pressure Humidity
    00:00 +7°C° 0.2 mm 2 mps 614 mmHg 87%
    01:00 +7°C° 0 mm 2 mps 614 mmHg 87%
    02:00 +6°C° 0 mm 2 mps 614 mmHg 87%
    03:00 +6°C° 0 mm 2 mps 613 mmHg 88%
    04:00 +6°C° 0 mm 2 mps 613 mmHg 88%
    05:00 +6°C° 0 mm 2 mps 613 mmHg 88%
    06:00 +7°C° 0 mm 1 mps 613 mmHg 87%
    07:00 +7°C° 0 mm 2 mps 614 mmHg 80%
    08:00 +9°C° 0 mm 2 mps 614 mmHg 72%
    09:00 +12°C° 0 mm 2 mps 615 mmHg 64%
    10:00 +12°C° 0.2 mm 2 mps 615 mmHg 62%
    11:00 +13°C° 0.2 mm 2 mps 614 mmHg 60%
    12:00 +13°C° 0.2 mm 2 mps 614 mmHg 58%
    13:00 +14°C° 0.2 mm 2 mps 614 mmHg 58%
    14:00 +14°C° 0.2 mm 2 mps 614 mmHg 58%
    15:00 +14°C° 0.2 mm 2 mps 613 mmHg 58%
    16:00 +13°C° 0.3 mm 2 mps 613 mmHg 64%
    17:00 +12°C° 0.3 mm 1 mps 612 mmHg 70%
    18:00 +11°C° 0.3 mm 1 mps 612 mmHg 76%
    19:00 +10°C° 0.6 mm 1 mps 612 mmHg 78%
    20:00 +10°C° 0.6 mm 1 mps 612 mmHg 80%
    21:00 +10°C° 0.6 mm 1 mps 612 mmHg 82%
    22:00 +10°C° 0.3 mm 1 mps 612 mmHg 83%
    23:00 +9°C° 0.3 mm 1 mps 612 mmHg 84%

    1 October, Sunday

    Time Temperature Precipitation Wind Pressure Humidity
    00:00 +9°C° 0.3 mm 1 mps 612 mmHg 86%
    01:00 +9°C° 0.1 mm 1 mps 612 mmHg 86%
    02:00 +8°C° 0.1 mm 1 mps 612 mmHg 87%
    03:00 +8°C° 0.1 mm 1 mps 612 mmHg 87%
    04:00 +8°C° 0 mm 1 mps 612 mmHg 85%
    05:00 +8°C° 0 mm 1 mps 612 mmHg 84%
    06:00 +8°C° 0 mm 1 mps 612 mmHg 82%
    07:00 +10°C° 0 mm 1 mps 613 mmHg 73%
    08:00 +12°C° 0 mm 1 mps 614 mmHg 64%
    09:00 +14°C° 0 mm 2 mps 615 mmHg 55%
    10:00 +15°C° 0 mm 2 mps 615 mmHg 52%
    11:00 +16°C° 0 mm 2 mps 615 mmHg 48%
    12:00 +17°C° 0 mm 3 mps 615 mmHg 44%
    13:00 +17°C° 0.1 mm 2 mps 615 mmHg 44%
    14:00 +17°C° 0.1 mm 2 mps 615 mmHg 44%
    15:00 +17°C° 0.1 mm 2 mps 614 mmHg 45%
    16:00 +16°C° 0.3 mm 2 mps 614 mmHg 52%
    17:00 +14°C° 0.3 mm 1 mps 614 mmHg 59%
    18:00 +12°C° 0.3 mm 1 mps 613 mmHg 67%
    19:00 +12°C° 0.3 mm 1 mps 613 mmHg 71%
    20:00 +12°C° 0.3 mm 1 mps 614 mmHg 74%
    21:00 +10°C° 0.3 mm 2 mps 614 mmHg 78%
    22:00 +10°C° 0.2 mm 2 mps 614 mmHg 80%
    23:00 +9°C° 0.2 mm 2 mps 614 mmHg 82%
    Show more